Weather History for KCTY - February, 2014

Change the Weather History Date:

Monday, February 10, 2014

  Actual Average Record
Temperature  
Mean Temperature 56 °F 56 °F  
Max Temperature 73 °F 69 °F 80 °F (1999)
Min Temperature 38 °F 43 °F 27 °F (2006)
Degree Days  
Heating Degree Days 9 9  
Month to date heating degree days 63 98  
Since 1 July heating degree days 862 976  
Cooling Degree Days 0 1  
Month to date cooling degree days 19 10  
Year to date cooling degree days 25 21  
Growing Degree Days 6 (Base 50)    
Moisture  
Dew Point 45 °F    
Average Humidity 76    
Maximum Humidity 100    
Minimum Humidity 41    
Precipitation  
Precipitation 0.00 in 0.07 in 0.52 in (2011)
Month to date precipitation 0.73 0.92  
Year to date precipitation 5.68 4.96  
Sea Level Pressure  
Sea Level Pressure 30.10 in    
Wind  
Wind Speed 1 mph (WSW)    
Max Wind Speed 12 mph    
Max Gust Speed 17 mph    
T = Trace of Precipitation, MM = Missing Value Source: NWS Daily Summary

Daily Weather History Graph

Daily Weather History Graph

Search for Another Location

Airport or City:

Trip Planner

Search our weather history database for the weather conditions in past years. The results will help you decide how hot, cold, wet, or windy it might be!

Date:

Astronomy

Feb. 10, 2014 Rise Set
Actual Time 7:15 AM EST 6:17 PM EST
Civil Twilight 6:51 AM EST 6:42 PM EST
Nautical Twilight 6:23 AM EST 7:10 PM EST
Astronomical Twilight 5:55 AM EST 7:38 PM EST
Moon 2:52 PM EST (2/10) 4:00 AM EST (2/10)
Length of Visible Light 11h 50m
Length of Day
11h 01m
Waxing Gibbous, 84% of the Moon is Illuminated
Feb 10
Waxing Gibbous
Feb 14
Full
Feb 22
Last Quarter
Mar 1
New
Mar 8
First Quarter

Hourly Weather History & Observations

Time (EST) Temp. Dew Point Humidity Pressure Visibility Wind Dir Wind Speed Gust Speed Precip Events Conditions
12:53 AM 42.1 °F 39.9 °F 92% 30.10 in - Calm Calm - N/A   Unknown
1:53 AM 42.1 °F 39.9 °F 92% 30.11 in - Calm Calm - N/A   Unknown
2:53 AM 41.0 °F 39.9 °F 96% 30.10 in - Calm Calm - N/A   Unknown
3:53 AM 41.0 °F 41.0 °F 100% 30.10 in - Calm Calm - N/A   Unknown
4:53 AM 43.0 °F 42.1 °F 97% 30.11 in - Calm Calm - N/A   Unknown
5:53 AM 41.0 °F 39.9 °F 96% 30.12 in - Calm Calm - N/A   Unknown
6:53 AM 39.0 °F 39.0 °F 100% 30.13 in - Calm Calm - N/A   Unknown
7:53 AM 42.1 °F 42.1 °F 100% 30.13 in - Calm Calm - N/A   Unknown
8:53 AM 51.1 °F 50.0 °F 96% 30.15 in - Calm Calm - N/A   Unknown
9:53 AM 59.0 °F 52.0 °F 78% 30.16 in - Calm Calm - N/A   Unknown
10:53 AM 64.9 °F 50.0 °F 58% 30.16 in - Calm Calm - N/A   Unknown
11:53 AM 66.9 °F 48.9 °F 52% 30.14 in - Calm Calm - N/A   Unknown
12:53 PM 69.1 °F 48.9 °F 49% 30.11 in - SW 3.5 mph - N/A   Unknown
1:53 PM 71.1 °F 46.9 °F 42% 30.08 in - Calm Calm - N/A   Unknown
2:53 PM 72.0 °F 46.9 °F 41% 30.06 in - Calm Calm - N/A   Unknown
3:53 PM 71.1 °F 48.0 °F 44% 30.06 in - West 10.4 mph - N/A   Unknown
4:53 PM 68.0 °F 48.0 °F 49% 30.06 in - SW 9.2 mph - N/A   Unknown
5:53 PM 64.9 °F 46.9 °F 52% 30.07 in - West 8.1 mph - N/A   Unknown
6:53 PM 57.0 °F 46.9 °F 69% 30.07 in - Calm Calm - N/A   Unknown
7:53 PM 52.0 °F 46.0 °F 80% 30.08 in - Calm Calm - N/A   Unknown
8:53 PM 48.9 °F 46.0 °F 90% 30.09 in - Calm Calm - N/A   Unknown
9:53 PM 46.9 °F 44.1 °F 90% 30.10 in - Calm Calm - N/A   Unknown
10:53 PM 46.0 °F 43.0 °F 89% 30.09 in - Calm Calm - N/A   Unknown
11:53 PM 45.0 °F 42.1 °F 90% 30.08 in - Calm Calm - N/A   Unknown